EW5770 Weather Reports


Display with metric or nautical units.
time (UTC)temp
F
wind
direction
speed
MPH
gust
MPH
rain 1hr
in
rain 24hr
in
rain mn
in
humidity
%
barometer
mb
20260903060219 68 0 0.0 0.0 0.00 0.00 0.00 85 1018.5
20260903055220 68 0 0.0 0.0 0.00 0.00 0.00 85 1018.5
20260903054220 68 0 0.0 0.0 0.00 0.00 0.00 86 1018.4
20260903052219 67 0 0.0 0.0 0.00 0.00 0.00 88 1018.1
20260903051219 67 0 0.0 0.0 0.00 0.00 0.00 88 1018.1
20260903045219 68 0 0.0 0.0 0.00 0.00 0.00 87 1018.0
20260903044219 67 0 0.0 0.0 0.00 0.00 0.00 87 1018.0
20260903043219 67 0 0.0 0.0 0.00 0.00 0.00 88 1017.9
20260903042219 67 0 0.0 0.0 0.00 0.00 0.00 88 1017.9
20260903041219 68 0 0.0 0.0 0.00 0.00 0.00 86 1017.8
20260903040220 68 0 0.0 0.0 0.00 0.00 0.00 87 1017.8
20260903035221 68 0 0.0 0.0 0.00 0.00 0.00 88 1017.8
20260903034220 68 0 0.0 0.0 0.00 0.00 0.00 89 1017.7
20260903033220 68 0 0.0 0.0 0.00 0.00 0.00 89 1017.7
20260903032219 68 0 0.0 0.0 0.00 0.00 0.00 87 1017.7
20260903031220 69 0 0.0 0.0 0.00 0.00 0.00 86 1017.8
20260903030220 69 0 0.0 0.0 0.00 0.00 0.00 86 1017.8
20260903025220 69 0 0.0 0.0 0.00 0.00 0.00 86 1017.8
20260903024219 69 0 0.0 0.0 0.00 0.00 0.00 87 1017.9
20260903023220 69 0 0.0 0.0 0.00 0.00 0.00 87 1017.8
20260903022219 69 0 0.0 0.0 0.00 0.00 0.00 86 1017.8
20260903021220 69 0 0.0 0.0 0.00 0.00 0.00 87 1017.7
20260903020220 70 0 0.0 0.0 0.00 0.00 0.00 86 1017.8
20260903015219 70 0 0.0 0.0 0.00 0.00 0.00 86 1017.7
20260903014220 70 0 0.0 0.0 0.00 0.00 0.00 86 1017.7
20260903013220 70 0 0.0 0.0 0.00 0.00 0.00 87 1017.8
20260903012220 70 0 0.0 0.0 0.00 0.00 0.00 86 1017.8
20260903011220 70 0 0.0 0.0 0.00 0.00 0.00 86 1017.8
20260903010220 71 0 0.0 0.0 0.00 0.00 0.00 86 1017.8
20260903004219 71 0 0.0 0.0 0.00 0.00 0.00 87 1017.7
20260903003221 71 0 0.0 0.0 0.00 0.00 0.00 86 1017.8
20260903002220 71 0 0.0 0.0 0.00 0.00 0.00 87 1017.9
20260903001220 72 0 0.0 0.0 0.00 0.00 0.00 87 1018.0
20260903000220 72 0 0.0 0.0 0.00 0.00 0.00 87 1018.0
20260902235220 72 0 0.0 0.0 0.00 0.00 0.00 87 1018.0
20260902233220 72 0 0.0 0.0 0.00 0.00 0.00 89 1018.1
20260902231219 73 0 0.0 0.0 0.00 0.00 0.00 88 1017.8
20260902230220 73 0 0.0 0.0 0.00 0.00 0.00 88 1017.9
20260902224220 73 0 0.0 0.0 0.00 0.00 0.00 88 1017.8
20260902223220 74 0 0.0 0.0 0.00 0.00 0.00 87 1017.7
20260902221220 74 0 0.0 0.0 0.00 0.00 0.00 87 1017.7
20260902220226 74 0 0.0 0.0 0.00 0.00 0.00 88 1017.7
20260902215220 74 0 0.0 0.0 0.00 0.00 0.00 88 1017.7
20260902213220 75 0 0.0 0.0 0.00 0.00 0.00 87 1017.6
20260902211219 75 0 0.0 0.0 0.00 0.00 0.00 86 1017.6
20260902210220 76 0 0.0 0.0 0.00 0.00 0.00 86 1017.5
20260902205220 76 0 0.0 0.0 0.00 0.00 0.00 85 1017.5
20260902204219 76 0 0.0 0.0 0.00 0.00 0.00 85 1017.4
20260902203219 76 0 0.0 0.0 0.00 0.00 0.00 85 1017.4
20260902202221 76 0 0.0 0.0 0.00 0.00 0.00 85 1017.5
20260902201220 77 0 0.0 0.0 0.00 0.00 0.00 84 1017.4
20260902200220 77 0 0.0 0.0 0.00 0.00 0.00 84 1017.4
20260902195220 77 0 0.0 0.0 0.00 0.00 0.00 84 1017.3
20260902194220 77 0 0.0 0.0 0.00 0.00 0.00 82 1017.3
20260902193220 78 0 0.0 0.0 0.00 0.00 0.00 82 1017.3
20260902192220 78 0 0.0 0.0 0.00 0.00 0.00 82 1017.2
20260902191220 78 0 0.0 0.0 0.00 0.00 0.00 82 1017.2
20260902190220 78 0 0.0 0.0 0.00 0.00 0.00 82 1017.2
20260902184221 78 0 0.0 0.0 0.00 0.00 0.00 81 1017.1
20260902183220 78 0 0.0 0.0 0.00 0.00 0.00 81 1017.0
20260902182220 78 0 0.0 0.0 0.00 0.00 0.00 81 1016.9
20260902181220 79 0 0.0 0.0 0.00 0.00 0.00 80 1016.9
20260902180221 79 0 0.0 0.0 0.00 0.00 0.00 80 1016.8
20260902174220 78 220 0.0 1.0 0.00 0.00 0.00 80 1016.7
20260902173220 78 0 0.0 0.0 0.00 0.00 0.00 80 1016.5
20260902172220 78 225 0.0 1.0 0.00 0.00 0.00 80 1016.6
20260902171220 79 0 0.0 0.0 0.00 0.00 0.00 78 1016.5
20260902170220 79 0 0.0 0.0 0.00 0.00 0.00 78 1016.5
20260902165221 80 0 0.0 0.0 0.00 0.00 0.00 77 1016.5
20260902164220 81 232 0.0 1.0 0.00 0.00 0.00 75 1016.5
20260902162221 83 238 0.0 1.0 0.00 0.00 0.00 72 1016.6
20260902160220 83 208 0.0 1.0 0.00 0.00 0.00 72 1016.7
20260902155220 83 0 0.0 0.0 0.00 0.00 0.00 71 1016.7
20260902154221 82 213 0.0 1.0 0.00 0.00 0.00 72 1016.7
20260902153221 83 183 0.0 1.0 0.00 0.00 0.00 72 1016.7
20260902152221 83 85 0.0 1.0 0.00 0.00 0.00 73 1016.8
20260902151220 82 0 0.0 0.0 0.00 0.00 0.00 73 1016.9
20260902150220 83 0 0.0 0.0 0.00 0.00 0.00 73 1017.0
20260902145220 83 236 0.0 1.0 0.00 0.00 0.00 73 1016.9
20260902144221 82 116 0.0 2.0 0.00 0.00 0.00 74 1016.9
20260902142221 83 236 0.0 1.0 0.00 0.00 0.00 72 1016.9
20260902140221 83 250 0.0 2.0 0.00 0.00 0.00 72 1017.1
20260902135221 83 171 0.0 1.0 0.00 0.00 0.00 73 1017.1
20260902134220 83 169 0.0 5.0 0.00 0.00 0.00 73 1017.3
20260902133220 82 237 0.0 4.0 0.00 0.00 0.00 73 1017.4
20260902131221 83 238 0.0 4.0 0.00 0.00 0.00 72 1017.4
20260902130220 83 226 0.0 1.0 0.00 0.00 0.00 73 1017.4
20260902124221 82 245 0.0 1.0 0.00 0.00 0.00 72 1017.5
20260902123221 83 181 0.0 1.0 0.00 0.00 0.00 72 1017.6
20260902122221 83 230 0.0 1.0 0.00 0.00 0.00 72 1017.7
20260902121220 83 234 0.0 1.0 0.00 0.00 0.00 72 1017.8
20260902120220 82 0 0.0 0.0 0.00 0.00 0.00 73 1017.9
20260902114220 82 0 0.0 0.0 0.00 0.00 0.00 74 1018.1
20260902113220 82 222 0.0 1.0 0.00 0.00 0.00 75 1018.1
20260902112220 82 218 0.0 1.0 0.00 0.00 0.00 75 1018.1
20260902111220 82 244 0.0 1.0 0.00 0.00 0.00 74 1018.1
20260902110220 81 246 0.0 1.0 0.00 0.00 0.00 76 1018.2
20260902104221 81 270 0.0 1.0 0.00 0.00 0.00 75 1018.2
20260902103222 83 188 0.0 2.0 0.00 0.00 0.00 73 1018.4
20260902102221 82 198 0.0 4.0 0.00 0.00 0.00 75 1018.4
20260902101221 81 230 0.0 1.0 0.00 0.00 0.00 74 1018.5
20260902100221 82 228 0.0 2.0 0.00 0.00 0.00 72 1018.5
20260902095221 82 0 0.0 0.0 0.00 0.00 0.00 72 1018.4
20260902094221 83 220 0.0 1.0 0.00 0.00 0.00 71 1018.4
20260902093221 83 193 0.0 1.0 0.00 0.00 0.00 70 1018.4
20260902092220 84 225 0.0 1.0 0.00 0.00 0.00 67 1018.3
20260902091221 83 0 0.0 0.0 0.00 0.00 0.00 66 1018.3
20260902090224 83 0 0.0 0.0 0.00 0.00 0.00 67 1018.4